| time (UTC) | temp C | wind direction | speed KPH | gust KPH | rain 1hr cm | rain 24hr cm | rain mn cm | humidity % | barometer mb |
| 20260504032517 | 14 | 255 | 4.8 | 9.7 | 0.00 | 0.03 | 0.03 | 76 | 1033.4 |
| 20260504031518 | 14 | 262 | 3.2 | 9.7 | 0.00 | 0.03 | 0.03 | 76 | 1033.3 |
| 20260504030537 | 14 | 257 | 4.8 | 12.9 | 0.00 | 0.03 | 0.03 | 76 | 1033.3 |
| 20260504025517 | 15 | 249 | 4.8 | 11.3 | 0.00 | 0.03 | 0.03 | 75 | 1033.3 |
| 20260504024517 | 15 | 248 | 6.4 | 11.3 | 0.00 | 0.03 | 0.03 | 74 | 1033.2 |
| 20260504023518 | 15 | 250 | 6.4 | 16.1 | 0.00 | 0.03 | 0.03 | 74 | 1033.3 |
| 20260504022517 | 15 | 261 | 6.4 | 14.5 | 0.00 | 0.03 | 0.03 | 75 | 1033.3 |
| 20260504021516 | 15 | 40 | 4.8 | 11.3 | 0.00 | 0.03 | 0.03 | 74 | 1033.3 |
| 20260504020516 | 15 | 236 | 3.2 | 9.7 | 0.00 | 0.03 | 0.03 | 73 | 1033.4 |
| 20260504015518 | 15 | 290 | 3.2 | 14.5 | 0.00 | 0.03 | 0.03 | 74 | 1033.5 |
| 20260504014517 | 15 | 290 | 3.2 | 11.3 | 0.00 | 0.03 | 0.03 | 75 | 1033.5 |
| 20260504013516 | 15 | 256 | 4.8 | 12.9 | 0.00 | 0.03 | 0.03 | 74 | 1033.6 |
| 20260504012518 | 15 | 254 | 3.2 | 12.9 | 0.00 | 0.03 | 0.03 | 74 | 1033.7 |
| 20260504011517 | 15 | 214 | 3.2 | 8.0 | 0.00 | 0.03 | 0.03 | 75 | 1034.0 |
| 20260504010517 | 15 | 224 | 1.6 | 4.8 | 0.00 | 0.03 | 0.03 | 79 | 1034.0 |
| 20260504005516 | 15 | 129 | 3.2 | 6.4 | 0.00 | 0.03 | 0.03 | 79 | 1034.1 |
| 20260504004518 | 15 | 92 | 3.2 | 6.4 | 0.00 | 0.03 | 0.03 | 79 | 1034.2 |
| 20260504003537 | 14 | 86 | 0.0 | 3.2 | 0.00 | 0.03 | 0.03 | 80 | 1034.3 |
| 20260504002516 | 14 | 143 | 1.6 | 4.8 | 0.00 | 0.03 | 0.03 | 80 | 1034.2 |
| 20260504001518 | 14 | 77 | 1.6 | 4.8 | 0.00 | 0.03 | 0.03 | 80 | 1034.4 |
| 20260504000517 | 13 | 113 | 1.6 | 9.7 | 0.00 | 0.03 | 0.03 | 81 | 1034.6 |
| 20260503235517 | 13 | 111 | 3.2 | 6.4 | 0.00 | 0.03 | 0.03 | 81 | 1034.6 |
| 20260503234516 | 13 | 107 | 3.2 | 6.4 | 0.00 | 0.03 | 0.03 | 81 | 1034.6 |
| 20260503233518 | 12 | 93 | 1.6 | 4.8 | 0.00 | 0.03 | 0.03 | 82 | 1034.8 |
| 20260503232517 | 12 | 105 | 1.6 | 4.8 | 0.00 | 0.03 | 0.03 | 83 | 1035.0 |
| 20260503231536 | 12 | 71 | 1.6 | 4.8 | 0.00 | 0.03 | 0.03 | 84 | 1035.1 |
| 20260503230518 | 11 | 133 | 1.6 | 6.4 | 0.00 | 0.03 | 0.03 | 86 | 1035.1 |
| 20260503225517 | 10 | 118 | 1.6 | 4.8 | 0.00 | 0.03 | 0.03 | 88 | 1035.1 |
| 20260503224517 | 10 | 144 | 1.6 | 6.4 | 0.00 | 0.03 | 0.03 | 88 | 1035.0 |
| 20260503223516 | 10 | 110 | 1.6 | 4.8 | 0.00 | 0.03 | 0.03 | 89 | 1034.9 |
| 20260503222518 | 10 | 100 | 1.6 | 6.4 | 0.00 | 0.03 | 0.03 | 89 | 1034.9 |
| 20260503221517 | 9 | 101 | 1.6 | 4.8 | 0.00 | 0.03 | 0.03 | 91 | 1035.0 |
| 20260503220516 | 9 | 99 | 1.6 | 4.8 | 0.00 | 0.03 | 0.03 | 91 | 1035.0 |
| 20260503215538 | 8 | 86 | 1.6 | 4.8 | 0.00 | 0.03 | 0.03 | 92 | 1035.0 |
| 20260503214517 | 8 | 108 | 1.6 | 4.8 | 0.00 | 0.03 | 0.03 | 92 | 1035.1 |
| 20260503213517 | 8 | 98 | 1.6 | 3.2 | 0.00 | 0.03 | 0.03 | 93 | 1035.2 |
| 20260503212516 | 8 | 151 | 1.6 | 3.2 | 0.00 | 0.03 | 0.03 | 94 | 1035.2 |
| 20260503211538 | 7 | 112 | 0.0 | 1.6 | 0.00 | 0.03 | 0.03 | 95 | 1035.3 |
| 20260503210517 | 7 | 121 | 0.0 | 3.2 | 0.00 | 0.03 | 0.03 | 96 | 1035.3 |
| 20260503205517 | 7 | 156 | 0.0 | 3.2 | 0.00 | 0.03 | 0.03 | 96 | 1035.4 |
| 20260503204518 | 7 | 155 | 0.0 | 1.6 | 0.00 | 0.03 | 0.03 | 97 | 1035.3 |
| 20260503203517 | 7 | 82 | 0.0 | 3.2 | 0.00 | 0.03 | 0.03 | 98 | 1035.2 |
| 20260503202517 | 6 | 52 | 0.0 | 3.2 | 0.00 | 0.03 | 0.03 | 98 | 1035.2 |
| 20260503201517 | 6 | 0.0 | 0.0 | 0.00 | 0.03 | 0.03 | 98 | 1035.2 | |
| 20260503200538 | 6 | 0.0 | 0.0 | 0.00 | 0.03 | 0.03 | 98 | 1035.0 | |
| 20260503195517 | 5 | 0.0 | 1.6 | 0.00 | 0.03 | 0.03 | 98 | 1034.9 | |
| 20260503194517 | 5 | 337 | 0.0 | 1.6 | 0.00 | 0.03 | 0.03 | 98 | 1034.8 |
| 20260503193516 | 5 | 323 | 0.0 | 1.6 | 0.00 | 0.03 | 0.03 | 98 | 1034.6 |
| 20260503192518 | 4 | 325 | 0.0 | 1.6 | 0.00 | 0.03 | 0.03 | 98 | 1034.6 |
| 20260503191518 | 4 | 318 | 0.0 | 3.2 | 0.00 | 0.03 | 0.03 | 98 | 1034.6 |
| 20260503190517 | 4 | 0.0 | 0.0 | 0.00 | 0.03 | 0.03 | 98 | 1034.6 | |
| 20260503185516 | 4 | 128 | 0.0 | 1.6 | 0.00 | 0.03 | 0.03 | 98 | 1034.6 |
| 20260503184517 | 4 | 183 | 0.0 | 1.6 | 0.00 | 0.03 | 0.03 | 98 | 1034.5 |
| 20260503183517 | 4 | 304 | 0.0 | 1.6 | 0.00 | 0.03 | 0.03 | 98 | 1034.5 |
| 20260503182516 | 4 | 333 | 0.0 | 1.6 | 0.00 | 0.03 | 0.03 | 97 | 1034.4 |
| 20260503181518 | 4 | 231 | 0.0 | 1.6 | 0.00 | 0.03 | 0.03 | 97 | 1034.5 |
| 20260503180517 | 4 | 227 | 0.0 | 1.6 | 0.00 | 0.03 | 0.03 | 97 | 1034.5 |
| 20260503175516 | 5 | 218 | 0.0 | 1.6 | 0.00 | 0.03 | 0.03 | 97 | 1034.4 |
| 20260503174518 | 5 | 142 | 0.0 | 1.6 | 0.00 | 0.03 | 0.03 | 97 | 1034.6 |
| 20260503173537 | 5 | 0.0 | 1.6 | 0.00 | 0.03 | 0.03 | 97 | 1034.5 | |
| 20260503172517 | 5 | 135 | 0.0 | 1.6 | 0.00 | 0.03 | 0.03 | 97 | 1034.6 |
| 20260503171516 | 5 | 253 | 0.0 | 1.6 | 0.00 | 0.03 | 0.03 | 97 | 1034.4 |
| 20260503170538 | 5 | 261 | 0.0 | 3.2 | 0.00 | 0.03 | 0.03 | 97 | 1034.5 |
| 20260503150516 | 5 | 213 | 0.0 | 1.6 | 0.00 | 0.03 | 0.03 | 97 | 1034.9 |
| 20260503130517 | 7 | 272 | 0.0 | 1.6 | 0.03 | 0.03 | 0.03 | 96 | 1034.8 |
| 20260503110518 | 8 | 287 | 1.6 | 3.2 | 0.00 | 0.00 | 0.00 | 93 | 1034.8 |
| 20260503081516 | 10 | 294 | 0.0 | 1.6 | 0.00 | 0.00 | 0.00 | 86 | 1034.1 |
| 20260503080517 | 11 | 293 | 1.6 | 4.8 | 0.00 | 0.00 | 0.00 | 85 | 1034.2 |
| 20260503072518 | 11 | 290 | 1.6 | 11.3 | 0.00 | 0.00 | 0.00 | 86 | 1034.0 |
| 20260503071518 | 11 | 288 | 1.6 | 8.0 | 0.00 | 0.00 | 0.00 | 86 | 1033.9 |
| 20260503070537 | 11 | 282 | 1.6 | 6.4 | 0.00 | 0.00 | 0.00 | 86 | 1033.9 |
| 20260503054516 | 12 | 252 | 1.6 | 8.0 | 0.00 | 0.00 | 0.00 | 84 | 1033.5 |
| 20260503053518 | 12 | 258 | 1.6 | 9.7 | 0.00 | 0.00 | 0.00 | 84 | 1033.3 |
| 20260503052517 | 12 | 263 | 1.6 | 4.8 | 0.00 | 0.00 | 0.00 | 84 | 1033.2 |
| 20260503051516 | 12 | 300 | 1.6 | 6.4 | 0.00 | 0.00 | 0.00 | 85 | 1033.3 |
| 20260503050516 | 12 | 288 | 1.6 | 3.2 | 0.00 | 0.00 | 0.00 | 85 | 1033.2 |
| 20260503045518 | 12 | 294 | 1.6 | 3.2 | 0.00 | 0.00 | 0.00 | 85 | 1033.2 |
| 20260503044658 | 12 | 277 | 1.6 | 6.4 | 0.00 | 0.00 | 0.00 | 85 | 1033.2 |
| 20260503043517 | 12 | 301 | 1.6 | 4.8 | 0.00 | 0.00 | 0.00 | 86 | 1033.2 |
| 20260503042518 | 12 | 311 | 1.6 | 3.2 | 0.00 | 0.00 | 0.00 | 88 | 1033.2 |
| 20260503041538 | 12 | 311 | 1.6 | 1.6 | 0.00 | 0.00 | 0.00 | 89 | 1033.2 |
| 20260503040517 | 12 | 311 | 1.6 | 1.6 | 0.00 | 0.00 | 0.00 | 89 | 1033.2 |
| 20260503035516 | 13 | 311 | 1.6 | 1.6 | 0.00 | 0.00 | 0.00 | 89 | 1033.2 |
| 20260503034518 | 13 | 311 | 1.6 | 1.6 | 0.00 | 0.00 | 0.00 | 88 | 1033.2 |
| 20260503033517 | 13 | 311 | 1.6 | 1.6 | 0.00 | 0.00 | 0.00 | 88 | 1033.4 |